FW6366 Weather Reports


Display with metric or nautical units.
time (UTC)temp
F
wind
direction
speed
MPH
gust
MPH
rain 1hr
in
rain 24hr
in
rain mn
in
humidity
%
barometer
mb
20260507033059 43 321 0.0 1.0 0.01 1.13 1.13 97 1009.0
20260507032601 43 0 0.0 0.0 0.01 1.13 1.13 97 1009.0
20260507032059 43 0 0.0 0.0 0.01 1.13 1.13 97 1009.1
20260507031558 43 0 0.0 0.0 0.00 1.12 1.12 97 1009.3
20260507031101 43 0 0.0 0.0 0.00 1.12 1.12 97 1009.4
20260507030558 43 0 0.0 0.0 0.00 1.12 1.12 97 1009.3
20260507030100 43 0 0.0 0.0 0.00 1.12 1.12 97 1009.5
20260507025558 43 0 0.0 0.0 0.00 1.12 1.12 97 1009.5
20260507025100 43 0 0.0 0.0 0.01 1.12 1.12 97 1009.5
20260507024600 44 0 0.0 0.0 0.01 1.12 1.12 97 1009.5
20260507024058 43 0 0.0 0.0 0.01 1.12 1.12 97 1009.6
20260507023602 43 0 0.0 0.0 0.02 1.12 1.12 97 1009.6
20260507023110 44 0 0.0 0.0 0.02 1.12 1.12 97 1009.8
20260507022559 44 0 0.0 0.0 0.02 1.12 1.12 97 1009.7
20260507022100 44 0 0.0 0.0 0.02 1.12 1.12 97 1009.7
20260507021557 44 0 0.0 0.0 0.02 1.12 1.12 97 1009.7
20260507021058 44 0 0.0 0.0 0.03 1.12 1.12 97 1009.8
20260507020600 44 0 0.0 1.0 0.03 1.12 1.12 97 1009.8
20260507020104 44 0 0.0 1.0 0.03 1.12 1.12 97 1009.8
20260507015558 44 0 0.0 1.0 0.04 1.12 1.12 97 1009.7
20260507015058 44 0 0.0 0.0 0.03 1.11 1.11 96 1009.7
20260507014558 44 0 0.0 0.0 0.04 1.11 1.11 97 1009.8
20260507014058 44 0 0.0 0.0 0.04 1.11 1.11 96 1009.8
20260507013600 44 0 0.0 0.0 0.03 1.10 1.10 96 1009.8
20260507013057 43 0 0.0 0.0 0.03 1.10 1.10 96 1009.7
20260507012558 43 0 0.0 0.0 0.03 1.10 1.10 96 1009.6
20260507012058 43 0 0.0 0.0 0.03 1.10 1.10 96 1009.6
20260507011558 44 0 0.0 1.0 0.04 1.10 1.10 96 1009.5
20260507011057 43 0 0.0 1.0 0.03 1.09 1.09 96 1009.7
20260507010557 44 0 0.0 0.0 0.04 1.09 1.09 96 1009.6
20260507005559 44 0 0.0 1.0 0.05 1.09 1.08 96 1009.6
20260507005101 44 29 0.0 1.0 0.05 1.09 1.08 96 1009.4
20260507004601 43 0 0.0 1.0 0.05 1.08 1.07 96 1009.4
20260507004101 44 0 0.0 1.0 0.05 1.08 1.07 96 1009.5
20260507003558 44 0 0.0 1.0 0.05 1.08 1.07 96 1009.4
20260507003116 44 0 0.0 1.0 0.05 1.08 1.07 96 1009.1
20260507002558 44 0 0.0 0.0 0.06 1.08 1.07 96 1009.0
20260507002103 44 0 0.0 1.0 0.06 1.08 1.07 96 1008.9
20260507001616 44 0 0.0 2.0 0.05 1.07 1.05 96 1008.9
20260507001101 44 30 0.0 2.0 0.05 1.07 1.05 96 1008.8
20260507000606 44 354 0.0 2.0 0.04 1.05 1.04 96 1008.8
20260506235604 44 0 0.0 1.0 0.02 1.04 1.03 96 1008.6
20260506235101 44 0 0.0 2.0 0.02 1.04 1.03 96 1008.8
20260506234603 44 0 0.0 4.0 0.01 1.03 1.02 96 1008.7
20260506234059 44 0 0.0 4.0 0.02 1.03 1.02 96 1008.5
20260506233602 44 7 0.0 5.0 0.02 1.03 1.02 96 1008.3
20260506233102 44 0 1.0 5.0 0.02 1.03 1.02 96 1008.2
20260506232558 44 54 2.0 5.0 0.01 1.02 1.01 96 1008.0
20260506232058 44 61 1.0 7.0 0.02 1.02 1.01 96 1007.9
20260506231607 44 53 3.0 7.0 0.02 1.02 1.01 96 1007.9
20260506231102 44 49 0.0 4.0 0.03 1.02 1.01 96 1007.9
20260506230602 45 0 1.0 4.0 0.04 1.02 1.01 96 1007.6
20260506230115 45 41 1.0 4.0 0.04 1.02 1.01 96 1007.4
20260506225603 45 14 1.0 4.0 0.04 1.02 1.01 96 1007.4
20260506225103 45 0 0.0 5.0 0.04 1.02 1.01 96 1007.5
20260506224559 45 56 0.0 6.0 0.04 1.02 1.01 96 1007.5
20260506224102 45 0 1.0 7.0 0.03 1.01 1.00 96 1007.5
20260506223601 45 0 1.0 7.0 0.03 1.01 1.00 96 1007.4
20260506223104 45 29 1.0 7.0 0.03 1.01 1.00 96 1007.4
20260506222600 45 50 2.0 5.0 0.03 1.01 1.00 96 1007.4
20260506222101 45 4 0.0 4.0 0.02 1.00 0.99 96 1007.1
20260506221612 45 45 0.0 4.0 0.03 1.00 0.99 96 1007.2
20260506221058 45 0 1.0 4.0 0.02 0.99 0.98 96 1007.2
20260506220600 45 0 0.0 7.0 0.01 0.98 0.97 96 1007.2
20260506215602 45 59 2.0 8.0 0.01 0.98 0.97 96 1007.2
20260506215100 45 51 2.0 8.0 0.02 0.98 0.97 96 1007.0
20260506214559 45 340 1.0 4.0 0.02 0.98 0.97 96 1006.9
20260506214058 45 53 0.0 3.0 0.02 0.98 0.97 96 1006.9
20260506213559 45 0 0.0 4.0 0.02 0.98 0.97 96 1006.9
20260506213103 45 0 0.0 4.0 0.02 0.98 0.97 96 1006.7
20260506212600 45 15 0.0 4.0 0.02 0.98 0.97 96 1006.7
20260506212100 46 0 0.0 4.0 0.02 0.98 0.97 96 1006.6
20260506211559 46 19 0.0 3.0 0.01 0.97 0.96 96 1006.6
20260506211059 46 55 0.0 3.0 0.01 0.97 0.96 96 1006.6
20260506210600 46 354 0.0 3.0 0.01 0.97 0.96 96 1006.6
20260506210100 45 38 0.0 3.0 0.01 0.97 0.96 96 1006.6
20260506205603 45 338 0.0 3.0 0.02 1.12 0.96 96 1006.6
20260506205059 46 10 1.0 4.0 0.02 1.11 0.95 96 1006.6
20260506204558 46 66 0.0 4.0 0.03 1.11 0.95 96 1006.5
20260506204058 46 29 1.0 4.0 0.05 1.11 0.95 96 1006.7
20260506203559 46 0 0.0 6.0 0.06 1.11 0.95 96 1006.6
20260506203120 46 349 1.0 7.0 0.07 1.11 0.95 96 1006.7
20260506202559 46 0 1.0 7.0 0.08 1.11 0.95 96 1006.7
20260506202059 46 0 1.0 5.0 0.08 1.11 0.95 96 1006.6
20260506201600 46 360 0.0 6.0 0.09 1.11 0.95 96 1006.6
20260506201059 46 0 1.0 6.0 0.09 1.11 0.95 96 1006.6
20260506200604 46 38 2.0 6.0 0.10 1.11 0.95 96 1006.7
20260506195559 46 53 1.0 6.0 0.12 1.10 0.94 96 1006.8
20260506195059 46 0 0.0 6.0 0.12 1.09 0.93 96 1006.8
20260506194601 46 0 1.0 6.0 0.13 1.08 0.92 96 1006.8
20260506194059 45 37 1.0 6.0 0.13 1.05 0.90 96 1006.7
20260506193559 46 310 1.0 7.0 0.13 1.04 0.89 96 1006.7
20260506193106 46 72 1.0 8.0 0.13 1.04 0.88 96 1006.9
20260506192559 45 37 5.0 8.0 0.12 1.03 0.87 96 1006.6
20260506192059 46 62 1.0 8.0 0.13 1.03 0.87 96 1006.7
20260506191559 46 31 1.0 7.0 0.13 1.02 0.86 96 1006.7
20260506191059 46 75 2.0 7.0 0.14 1.02 0.86 96 1006.7
20260506190602 46 47 2.0 8.0 0.14 1.01 0.85 96 1006.6
20260506190058 46 28 2.0 8.0 0.12 0.99 0.83 96 1006.7
20260506185602 46 60 3.0 7.0 0.11 0.98 0.82 96 1006.7
20260506185116 46 31 0.0 7.0 0.11 0.97 0.81 96 1006.8
20260506184600 46 349 2.0 8.0 0.10 0.95 0.79 96 1006.8
20260506184101 46 39 3.0 8.0 0.09 0.93 0.77 96 1006.7
20260506183604 46 25 2.0 6.0 0.10 0.92 0.76 96 1006.5
20260506183108 46 18 1.0 6.0 0.10 0.91 0.75 96 1006.6
20260506182559 46 0 3.0 6.0 0.12 0.91 0.75 96 1006.8
20260506182059 46 61 3.0 6.0 0.13 0.90 0.74 96 1006.7
20260506181604 46 75 1.0 5.0 0.13 0.89 0.73 96 1006.8
20260506181059 46 360 1.0 7.0 0.14 0.88 0.72 96 1006.8
20260506180559 46 333 1.0 7.0 0.14 0.87 0.71 96 1006.5
20260506180059 46 41 3.0 10.0 0.16 0.87 0.71 96 1006.6
20260506175559 46 360 2.0 10.0 0.18 0.87 0.71 96 1006.5
20260506175101 47 280 2.0 7.0 0.19 0.86 0.70 97 1006.6
20260506174559 47 4 2.0 7.0 0.19 0.85 0.69 96 1006.6
20260506174059 47 346 2.0 6.0 0.19 0.84 0.68 96 1006.5
20260506173559 47 355 1.0 6.0 0.18 0.82 0.66 96 1006.6
20260506173109 47 63 1.0 6.0 0.18 0.81 0.65 96 1006.8
20260506172603 47 354 1.0 7.0 0.17 0.79 0.63 96 1006.9
20260506172058 47 360 2.0 7.0 0.16 0.77 0.61 96 1007.0
20260506171601 48 347 2.0 7.0 0.16 0.76 0.60 96 1007.1
20260506171101 48 6 2.0 7.0 0.15 0.74 0.58 96 1007.3
20260506170558 48 321 2.0 6.0 0.15 0.73 0.57 96 1007.3
20260506170109 48 0 1.0 7.0 0.14 0.71 0.55 96 1007.2
20260506165559 48 46 3.0 7.0 0.14 0.69 0.52 96 1007.2
20260506165101 49 335 2.0 5.0 0.13 0.67 0.51 96 1007.2
20260506164626 49 6 2.0 6.0 0.14 0.66 0.50 96 1007.1
20260506164059 49 0 1.0 6.0 0.14 0.65 0.49 96 1007.1
20260506163600 49 13 2.0 4.0 0.14 0.64 0.48 97 1007.2
20260506163111 49 12 1.0 8.0 0.15 0.63 0.47 97 1007.3
20260506162558 49 58 0.0 8.0 0.15 0.62 0.46 97 1007.3
20260506162059 49 22 3.0 8.0 0.15 0.61 0.45 96 1007.1
20260506161601 49 338 1.0 5.0 0.16 0.60 0.44 96 1007.2
20260506161102 50 0 0.0 8.0 0.16 0.58 0.43 96 1007.3
20260506160601 49 0 1.0 8.0 0.16 0.58 0.42 96 1007.3
20260506160122 50 58 3.0 6.0 0.16 0.57 0.41 96 1007.4
20260506155558 50 24 1.0 5.0 0.15 0.55 0.39 97 1007.6
20260506155100 50 34 1.0 5.0 0.15 0.54 0.38 97 1007.4
20260506154600 50 61 1.0 7.0 0.14 0.52 0.36 96 1007.4
20260506154058 50 0 0.0 7.0 0.14 0.51 0.35 96 1007.4
20260506153603 50 1 1.0 7.0 0.14 0.50 0.34 96 1007.5
20260506153101 50 8 2.0 6.0 0.13 0.48 0.32 96 1007.7
20260506152559 50 345 1.0 4.0 0.13 0.47 0.31 97 1007.7
20260506152107 50 63 1.0 8.0 0.13 0.46 0.30 97 1007.9
20260506151605 50 341 0.0 8.0 0.11 0.44 0.28 96 1008.0
20260506151058 51 4 2.0 7.0 0.10 0.43 0.27 96 1008.1
20260506150601 51 30 0.0 5.0 0.10 0.42 0.26 96 1008.1
20260506150108 51 11 2.0 6.0 0.10 0.41 0.25 96 1008.1
20260506145559 51 0 2.0 6.0 0.09 0.40 0.24 96 1008.3
20260506145102 52 19 3.0 6.0 0.09 0.39 0.23 96 1008.3
20260506144605 52 347 1.0 6.0 0.09 0.38 0.22 97 1008.2
20260506144102 52 353 2.0 6.0 0.09 0.37 0.21 97 1008.2
20260506143559 53 61 1.0 4.0 0.09 0.36 0.20 97 1008.2
20260506143100 53 51 1.0 5.0 0.08 0.35 0.19 97 1008.1
20260506142602 53 56 0.0 5.0 0.08 0.34 0.18 97 1008.1
20260506142101 53 0 1.0 5.0 0.07 0.33 0.17 96 1008.3
20260506141600 54 0 0.0 4.0 0.07 0.33 0.17 97 1008.1
20260506141059 54 71 0.0 7.0 0.08 0.33 0.17 97 1008.0
20260506140601 54 1 2.0 7.0 0.07 0.32 0.16 97 1008.1
20260506140059 55 58 2.0 7.0 0.07 0.31 0.15 97 1008.1
20260506135600 55 0 0.0 5.0 0.07 0.31 0.15 97 1007.9
20260506135058 55 0 0.0 5.0 0.07 0.30 0.14 97 1007.9
20260506134601 55 356 1.0 5.0 0.06 0.29 0.13 97 1007.8
20260506134101 55 4 1.0 4.0 0.05 0.28 0.12 97 1007.9
20260506133559 55 37 0.0 4.0 0.05 0.27 0.11 97 1007.8
20260506133109 55 3 1.0 4.0 0.05 0.27 0.11 97 1007.6
20260506132600 55 0 0.0 3.0 0.04 0.26 0.10 97 1007.9
20260506132102 55 0 0.0 2.0 0.04 0.26 0.10 97 1007.9
20260506131615 55 309 0.0 3.0 0.04 0.26 0.10 97 1007.9
20260506131059 55 0 0.0 3.0 0.04 0.25 0.09 97 1007.9
20260506130558 55 59 0.0 4.0 0.04 0.25 0.09 97 1008.0
20260506130059 55 48 0.0 4.0 0.03 0.24 0.08 97 1008.1
20260506125557 55 58 0.0 4.0 0.03 0.24 0.08 97 1008.2
20260506125058 55 0 0.0 4.0 0.02 0.23 0.07 97 1008.3
20260506124556 55 348 0.0 3.0 0.02 0.23 0.07 97 1008.5
20260506124059 55 0 0.0 2.0 0.02 0.23 0.07 97 1008.4
20260506123558 55 0 0.0 2.0 0.01 0.22 0.06 97 1008.5
20260506123059 55 0 0.0 3.0 0.01 0.22 0.06 97 1008.6
20260506122559 55 349 1.0 3.0 0.01 0.22 0.06 97 1008.3
20260506122058 55 0 0.0 3.0 0.01 0.22 0.06 97 1008.2
20260506121601 55 0 0.0 5.0 0.01 0.22 0.06 97 1008.1
20260506121058 55 360 2.0 5.0 0.00 0.21 0.05 97 1007.9
20260506120558 55 53 2.0 4.0 0.00 0.21 0.05 97 1008.0
20260506120111 55 44 0.0 3.0 0.00 0.21 0.05 97 1008.2
20260506115558 55 24 2.0 3.0 0.00 0.21 0.05 97 1008.2
20260506115059 55 0 0.0 3.0 0.00 0.21 0.05 97 1008.0
20260506114558 55 0 0.0 1.0 0.00 0.21 0.05 97 1008.1
20260506114101 55 0 0.0 1.0 0.00 0.21 0.05 97 1008.1
20260506113557 55 0 0.0 1.0 0.00 0.21 0.05 97 1008.0
20260506113057 55 0 0.0 1.0 0.00 0.21 0.05 97 1007.8
20260506112600 55 0 0.0 1.0 0.00 0.21 0.05 97 1007.9
20260506112101 55 0 0.0 1.0 0.00 0.21 0.05 97 1008.2
20260506111557 55 165 0.0 2.0 0.00 0.21 0.05 97 1008.1
20260506111059 55 0 0.0 2.0 0.00 0.21 0.05 97 1008.2
20260506110558 55 128 1.0 2.0 0.00 0.21 0.05 97 1008.0
20260506110113 55 0 0.0 1.0 0.00 0.21 0.05 97 1007.9
20260506105558 55 0 0.0 2.0 0.00 0.21 0.05 97 1007.8
20260506105057 55 0 0.0 2.0 0.00 0.21 0.05 97 1007.8
20260506104613 55 96 0.0 2.0 0.00 0.21 0.05 97 1007.6
20260506104100 55 0 0.0 1.0 0.00 0.21 0.05 97 1007.8
20260506103601 55 0 0.0 1.0 0.00 0.21 0.05 97 1007.9
20260506103101 55 0 0.0 2.0 0.00 0.21 0.05 97 1007.9
20260506102558 55 0 0.0 2.0 0.00 0.21 0.05 97 1007.8
20260506102059 54 0 0.0 1.0 0.00 0.21 0.05 97 1008.0
20260506101558 54 47 0.0 1.0 0.00 0.21 0.05 97 1007.9
20260506101100 54 0 0.0 0.0 0.00 0.21 0.05 97 1007.7
20260506100606 54 0 0.0 2.0 0.00 0.21 0.05 97 1007.7
20260506100113 54 0 0.0 2.0 0.00 0.21 0.05 97 1007.8
20260506095601 54 0 0.0 1.0 0.00 0.21 0.05 97 1007.8
20260506095059 54 0 0.0 1.0 0.00 0.21 0.05 97 1007.8
20260506094604 54 290 0.0 1.0 0.00 0.21 0.05 97 1007.9
20260506094058 54 0 0.0 1.0 0.00 0.21 0.05 97 1007.8
20260506093603 54 0 0.0 1.0 0.00 0.21 0.05 97 1007.9
20260506093102 54 0 0.0 1.0 0.00 0.21 0.05 97 1008.0
20260506092559 54 0 0.0 1.0 0.00 0.21 0.05 97 1007.9
20260506092059 54 0 0.0 1.0 0.00 0.21 0.05 97 1007.9
20260506091607 54 0 0.0 0.0 0.00 0.21 0.05 97 1007.9
20260506091059 54 0 0.0 0.0 0.00 0.21 0.05 97 1007.9
20260506090602 55 0 0.0 1.0 0.00 0.21 0.05 97 1007.9
20260506090104 55 0 0.0 2.0 0.00 0.21 0.05 97 1008.1
20260506085558 55 0 0.0 2.0 0.00 0.21 0.05 97 1008.1
20260506085059 55 311 0.0 2.0 0.00 0.21 0.05 97 1008.2
20260506084636 54 0 0.0 1.0 0.00 0.21 0.05 97 1008.2
20260506084059 55 0 0.0 2.0 0.00 0.21 0.05 97 1008.3
20260506083559 55 0 0.0 3.0 0.00 0.21 0.05 97 1008.5
20260506083101 55 321 1.0 3.0 0.00 0.21 0.05 97 1008.5
20260506082602 55 323 0.0 1.0 0.00 0.21 0.05 97 1008.3
20260506082058 55 0 0.0 1.0 0.00 0.21 0.05 97 1008.4
20260506081602 55 0 0.0 0.0 0.00 0.21 0.05 97 1008.7
20260506081059 55 0 0.0 1.0 0.00 0.21 0.05 97 1008.8
20260506080604 55 0 0.0 1.0 0.00 0.21 0.05 97 1008.7
20260506080105 55 0 0.0 2.0 0.00 0.21 0.05 97 1008.8
20260506073101 55 0 0.0 0.0 0.00 0.21 0.05 97 1008.6
20260506072559 55 0 0.0 1.0 0.00 0.21 0.05 97 1008.5
20260506072059 55 0 0.0 1.0 0.00 0.21 0.05 97 1008.7
20260506071600 55 0 0.0 1.0 0.00 0.21 0.05 97 1008.5
20260506071059 55 0 0.0 1.0 0.00 0.21 0.05 97 1008.6
20260506070558 56 0 0.0 0.0 0.00 0.21 0.05 97 1008.7
20260506062058 56 0 0.0 1.0 0.00 0.21 0.05 97 1009.0
20260506061604 56 0 0.0 0.0 0.00 0.21 0.05 97 1008.7
20260506061059 56 0 0.0 0.0 0.00 0.21 0.05 97 1008.9
20260506060559 56 0 0.0 0.0 0.00 0.21 0.05 97 1009.0
20260506051058 56 46 1.0 3.0 0.05 0.21 0.05 97 1009.7
20260506050559 56 0 0.0 2.0 0.05 0.21 0.05 96 1009.4
20260506045058 56 0 0.0 2.0 0.00 0.16 0.00 96 1009.3
20260506044559 56 323 0.0 2.0 0.00 0.16 0.00 96 1009.0
20260506044100 56 0 0.0 1.0 0.00 0.16 0.00 96 1008.9
20260506043600 56 0 0.0 2.0 0.00 0.16 0.00 96 1009.0
20260506043059 56 0 0.0 2.0 0.00 0.16 0.00 96 1009.0
20260506042559 56 0 0.0 1.0 0.00 0.16 0.00 96 1009.0
20260506042102 56 0 0.0 1.0 0.00 0.16 0.00 96 1009.0
20260506041607 56 0 0.0 1.0 0.00 0.16 0.00 96 1008.8
20260506041058 56 0 0.0 1.0 0.00 0.16 0.00 96 1008.9
20260506040558 56 0 0.0 1.0 0.00 0.16 0.00 96 1008.9
20260506040059 56 0 0.0 1.0 0.00 0.16 0.00 96 1009.0
20260506035558 56 0 0.0 1.0 0.00 0.16 0.16 96 1008.9
20260506035059 57 0 0.0 2.0 0.00 0.16 0.16 96 1008.7
20260506034600 56 0 0.0 2.0 0.00 0.16 0.16 96 1008.8
20260506034059 56 0 1.0 2.0 0.00 0.16 0.16 96 1008.7
20260506033600 56 96 0.0 1.0 0.00 0.16 0.16 96 1008.7